Location: Unspecified
(35.7250°N, 0.0000°E)
Time: 10:50:55
(UTC+00:00)

Tiros 1 - Pass Details

Date: 29 June 2019
Orbit: 630 x 664 km, 48.4° (Epoch: 16 July)

Event Time Altitude Azimuth Distance (km) Brightness Sun altitude
Rises 00:44:14 0° 308° (NW) 2,947 10.9 -30.2°
Reaches altitude 10° 00:47:05 10° 325° (NW) 2,030 10.2 -30.1°
Maximum altitude 00:50:38 21° 14° (NNE) 1,433 9.6 -30.0°
Drops below altitude 10° 00:54:09 10° 64° (ENE) 2,014 10.1 -29.8°
Sets 00:56:58 0° 81° (E) 2,917 10.8 -29.7°
